Weather History for Salinas, CA

Change the Weather History Date:

Saturday, August 24, 2013

  Actual Average Record
Temperature  
Mean Temperature 66 °F 64 °F  
Max Temperature 75 °F 73 °F 101 °F (2010)
Min Temperature 57 °F 56 °F 46 °F (1937)
Degree Days  
Heating Degree Days 0 2  
Month to date heating degree days 35 48  
Since 1 June heating degree days 203 239  
Since 1 July heating degree days 105 126  
Cooling Degree Days 1 1  
Month to date cooling degree days 14 21  
Year to date cooling degree days 61 67  
Since 1 June cooling degree days 51 51  
Growing Degree Days 14 (Base 50)    
Moisture  
Dew Point 55 °F    
Average Humidity 72    
Maximum Humidity 87    
Minimum Humidity 57    
Precipitation  
Precipitation 0.00 in 0.00 in 0.01 in (2004)
Month to date precipitation 0.02 0.03  
Year to date precipitation 2.35 8.75  
Since 1 July precipitation 0.02 0.03  
Sea Level Pressure  
Sea Level Pressure 29.91 in    
Wind  
Wind Speed 8 mph (WNW)    
Max Wind Speed 17 mph    
Max Gust Speed 21 mph    
Visibility 10 miles    
Events      
T = Trace of Precipitation, MM = Missing Value Source: NWS Daily Summary

Daily Weather History Graph

Daily Weather History Graph

Search for Another Location

Airport:

Trip Planner

Search our weather history database for the weather conditions in past years. The results will help you decide how hot, cold, wet, or windy it might be!

Date:

Astronomy

Aug. 24, 2013 Rise Set
Actual Time 6:31 AM PDT 7:45 PM PDT
Civil Twilight 6:04 AM PDT 8:12 PM PDT
Nautical Twilight 5:32 AM PDT 8:44 PM PDT
Astronomical Twilight 4:59 AM PDT 9:17 PM PDT
Moon 9:51 PM PDT (8/24) 10:28 AM PDT (8/24)
Length of Visible Light 14h 07m
Length of Day
13h 13m
Waning Gibbous, 83% of the Moon is Illuminated
Aug 24
Waning Gibbous
Aug 28
Last Quarter
Sep 5
New
Sep 12
First Quarter
Sep 19
Full

Hourly Weather History & Observations

Time (PDT) Temp. Dew Point Humidity Pressure Visibility Wind Dir Wind Speed Gust Speed Precip Events Conditions
12:53 AM 59.0 °F 54.0 °F 83% 29.91 in 10.0 mi WNW 6.9 mph - N/A   Clear
1:02 AM 59.0 °F 53.6 °F 82% 29.89 in 10.0 mi NNW 5.8 mph - N/A   Scattered Clouds
1:13 AM 59.0 °F 53.6 °F 82% 29.89 in 10.0 mi NW 5.8 mph - N/A   Mostly Cloudy
1:53 AM 59.0 °F 54.0 °F 83% 29.91 in 10.0 mi West 6.9 mph - N/A   Mostly Cloudy
2:53 AM 59.0 °F 55.0 °F 87% 29.91 in 10.0 mi West 8.1 mph - N/A   Overcast
3:53 AM 59.0 °F 55.0 °F 87% 29.91 in 10.0 mi WNW 3.5 mph - N/A   Overcast
4:46 AM 59.0 °F 53.6 °F 82% 29.88 in 10.0 mi West 5.8 mph - N/A   Scattered Clouds
4:53 AM 57.9 °F 54.0 °F 87% 29.91 in 10.0 mi West 4.6 mph - N/A   Scattered Clouds
5:04 AM 57.2 °F 53.6 °F 88% 29.88 in 10.0 mi West 6.9 mph - N/A   Mostly Cloudy
5:53 AM 57.9 °F 54.0 °F 87% 29.92 in 10.0 mi West 6.9 mph - N/A   Overcast
6:53 AM 57.0 °F 55.0 °F 93% 29.92 in 6.0 mi Calm Calm - N/A   Overcast
7:46 AM 57.2 °F 53.6 °F 88% 29.90 in 9.0 mi WNW 4.6 mph - N/A   Overcast
7:53 AM 57.9 °F 54.0 °F 87% 29.93 in 10.0 mi NW 3.5 mph - N/A   Overcast
8:53 AM 60.1 °F 54.0 °F 80% 29.94 in 10.0 mi NW 3.5 mph - N/A   Mostly Cloudy
9:00 AM 60.8 °F 53.6 °F 77% 29.92 in 10.0 mi Calm Calm - N/A   Scattered Clouds
9:53 AM 64.0 °F 54.0 °F 70% 29.94 in 10.0 mi Calm Calm - N/A   Clear
10:53 AM 70.0 °F 55.9 °F 61% 29.94 in 10.0 mi West 3.5 mph - N/A   Clear
11:53 AM 71.1 °F 55.0 °F 57% 29.94 in 10.0 mi West 11.5 mph - N/A   Clear
12:53 PM 71.1 °F 55.0 °F 57% 29.93 in 10.0 mi West 15.0 mph - N/A   Clear
1:53 PM 72.0 °F 57.0 °F 59% 29.91 in 10.0 mi West 12.7 mph - N/A   Clear
2:53 PM 72.0 °F 57.0 °F 59% 29.91 in 10.0 mi West 11.5 mph - N/A   Clear
3:53 PM 72.0 °F 57.0 °F 59% 29.91 in 10.0 mi West 15.0 mph - N/A   Clear
4:53 PM 71.1 °F 57.0 °F 61% 29.91 in 10.0 mi West 10.4 mph - N/A   Clear
5:53 PM 69.1 °F 57.0 °F 65% 29.91 in 10.0 mi West 12.7 mph - N/A   Clear
6:53 PM 69.1 °F 57.0 °F 65% 29.91 in 10.0 mi West 9.2 mph - N/A   Clear
7:53 PM 66.0 °F 57.0 °F 73% 29.91 in 10.0 mi West 12.7 mph - N/A   Clear
8:27 PM 64.4 °F 57.2 °F 77% 29.89 in 10.0 mi WNW 6.9 mph - N/A   Mostly Cloudy
8:53 PM 64.9 °F 57.0 °F 75% 29.92 in 10.0 mi West 6.9 mph - N/A   Scattered Clouds
9:53 PM 64.9 °F 57.9 °F 78% 29.94 in 10.0 mi NW 6.9 mph - N/A   Clear
10:53 PM 64.0 °F 57.0 °F 78% 29.94 in 10.0 mi NNW 10.4 mph - N/A   Clear
11:53 PM 64.0 °F 57.0 °F 78% 29.93 in 10.0 mi NNW 4.6 mph - N/A   Clear